Weather History for Trinidad, CO

Change the Weather History Date:

Tuesday, March 25, 2014

  Actual Average Record
Temperature  
Mean Temperature 45 °F 44 °F  
Max Temperature 66 °F 60 °F 85 °F (2012)
Min Temperature 24 °F 29 °F 5 °F (2013)
Degree Days  
Heating Degree Days 20 21  
Month to date heating degree days 601 587  
Since 1 July heating degree days 4595 4709  
Cooling Degree Days 0 0  
Month to date cooling degree days 0 0  
Year to date cooling degree days 0 0  
Moisture  
Dew Point 19 °F    
Average Humidity 48    
Maximum Humidity 81    
Minimum Humidity 14    
Precipitation  
Precipitation 0.00 in 0.03 in 0.34 in (1997)
Month to date precipitation 0.46 0.70  
Year to date precipitation 0.55 1.59  
Sea Level Pressure  
Sea Level Pressure 30.03 in    
Wind  
Wind Speed 9 mph (SW)    
Max Wind Speed 24 mph    
Max Gust Speed 30 mph    
Visibility 10 miles    
Events      
T = Trace of Precipitation, MM = Missing Value Source: NWS Daily Summary

Daily Weather History Graph

Daily Weather History Graph

Search for Another Location

Airport:

Trip Planner

Search our weather history database for the weather conditions in past years. The results will help you decide how hot, cold, wet, or windy it might be!

Date:

Astronomy

Mar. 25, 2014 Rise Set
Actual Time 6:53 AM MDT 7:13 PM MDT
Civil Twilight 6:27 AM MDT 7:39 PM MDT
Nautical Twilight 5:56 AM MDT 8:10 PM MDT
Astronomical Twilight 5:25 AM MDT 8:41 PM MDT
Moon 3:10 AM MDT (3/25) 1:53 PM MDT (3/25)
Length of Visible Light 13h 12m
Length of Day
12h 20m
Waning Crescent, 31% of the Moon is Illuminated
Mar 25
Waning Crescent
Mar 30
New
Apr 7
First Quarter
Apr 15
Full
Apr 22
Last Quarter

Hourly Weather History & Observations

Time (MDT) Temp. Windchill Dew Point Humidity Pressure Visibility Wind Dir Wind Speed Gust Speed Precip Events Conditions
12:54 AM 30.0 °F 25.2 °F 18.0 °F 61% 30.15 in 10.0 mi SW 4.6 mph - N/A   Clear
1:54 AM 34.0 °F 27.2 °F 18.0 °F 52% 30.13 in 10.0 mi SW 8.1 mph - N/A   Clear
2:54 AM 36.0 °F 25.6 °F 18.0 °F 48% 30.11 in 10.0 mi West 18.4 mph 29.9 mph N/A   Clear
3:54 AM 34.0 °F 24.6 °F 17.1 °F 50% 30.12 in 10.0 mi WSW 13.8 mph - N/A   Clear
4:54 AM 28.9 °F 19.8 °F 19.0 °F 67% 30.20 in 10.0 mi NW 10.4 mph - N/A   Clear
5:54 AM 26.1 °F 16.8 °F 19.0 °F 75% 30.26 in 10.0 mi NW 9.2 mph - N/A   Clear
6:54 AM 25.0 °F 16.3 °F 19.0 °F 78% 30.27 in 10.0 mi WNW 8.1 mph - N/A   Clear
7:54 AM 28.0 °F 20.0 °F 19.9 °F 72% 30.28 in 10.0 mi West 8.1 mph - N/A   Clear
8:54 AM 34.0 °F 26.0 °F 21.0 °F 59% 30.26 in 10.0 mi West 10.4 mph - N/A   Clear
9:54 AM 37.9 °F - 19.9 °F 48% 30.23 in 10.0 mi Calm Calm - N/A   Clear
10:54 AM 42.1 °F 39.2 °F 19.9 °F 41% 30.21 in 10.0 mi Variable 4.6 mph - N/A   Clear
11:54 AM 48.0 °F - 21.0 °F 34% 30.14 in 10.0 mi ENE 6.9 mph - N/A   Clear
12:54 PM 52.0 °F - 21.0 °F 30% 30.07 in 10.0 mi East 11.5 mph - N/A   Clear
1:54 PM 55.9 °F - 21.0 °F 26% 29.98 in 10.0 mi ENE 8.1 mph - N/A   Clear
2:54 PM 60.1 °F - 17.1 °F 19% 29.91 in 10.0 mi SE 6.9 mph - N/A   Clear
3:54 PM 63.0 °F - 14.0 °F 15% 29.86 in 10.0 mi Variable 3.5 mph - N/A   Clear
4:54 PM 62.1 °F - 12.9 °F 15% 29.84 in 10.0 mi ESE 4.6 mph - N/A   Clear
5:54 PM 62.1 °F - 15.1 °F 16% 29.83 in 10.0 mi South 10.4 mph 17.3 mph N/A   Clear
6:54 PM 57.0 °F - 15.1 °F 19% 29.83 in 10.0 mi South 10.4 mph - N/A   Clear
7:54 PM 52.0 °F - 16.0 °F 24% 29.83 in 10.0 mi South 11.5 mph - N/A   Clear
8:54 PM 50.0 °F - 16.0 °F 26% 29.82 in 10.0 mi North 3.5 mph - N/A   Clear
9:54 PM 50.0 °F - 19.0 °F 29% 29.80 in 10.0 mi West 5.8 mph - N/A   Clear
10:54 PM 46.9 °F - 23.0 °F 39% 29.78 in 10.0 mi SSW 13.8 mph - N/A   Clear
11:54 PM 48.0 °F - 26.1 °F 42% 29.74 in 10.0 mi SSW 17.3 mph 26.5 mph N/A   Clear